Location: Hungerford
(51.4167°N, 1.5167°W)
Time: 04:56:16
(UTC+00:00)

Cosmos 1975 Rocket - Pass Details

Date: 18 September 2020
Orbit: 603 x 635 km, 82.5° (Epoch: 20 October)

Event Time Altitude Azimuth Distance (km) Brightness Sun altitude
Rises 19:04:13 0° 348° (NNW) 2,886 6.9 -8.8°
Reaches altitude 10° 19:06:27 10° 348° (NNW) 1,972 6.0 -9.1°
Maximum altitude 19:10:49 83° 261° (W) 617 3.1 -9.8°
Drops below altitude 10° 19:15:07 10° 174° (S) 1,946 5.4 -10.4°
Sets 19:17:19 0° 174° (S) 2,844 6.2 -10.8°
